SHIJIAN-20 (SJ-20)

Last updated on Sun Dec 21 2025 00:02:56 GMT+0000 (Coordinated Universal Time)

1 44910U 19097A 25354.13869227 -.00000095 00000+0 00000+0 0 9994 2 44910 4.4592 77.2890 0007340 232.1866 267.3373 1.00269544 21903
UTC large
Height (km)
Speed (km/s)
/
Latitude / Longitude
Inclination (degrees)
Orbital Period (minutes)
Azimuth
Elevation
Range (km)
Doppler Factor

Next 0 passes for location: London (51.5072 / 0.1276)

Sorry there are no passes over London.